Overview Statistics Trail Chart Weather Telemetry Raw packets
 

This is the latest recevied weather packets stored in our database for station/object ED3YAB-7. If no packets are shown the sender has not sent any weather packets the latest 10 day(s).

<< 27 28 29 30 31 32 33 >>
Time Temp. Humidity Pressure Rain* Wind** Luminosity Snow
1777519359 13.33° C 64% 1019.5 hPa - - - -
1777518151 12.78° C 65% 1019.5 hPa - - - -
1777516951 12.78° C 65% 1019.5 hPa - - - -
1777515751 13.89° C 63% 1019.4 hPa - - - -
1777514551 12.78° C 65% 1019.4 hPa - - - -
1777513351 13.33° C 64% 1019.4 hPa - - - -
1777512150 14.44° C 62% 1019.5 hPa - - - -
1777510950 14.44° C 62% 1019.7 hPa - - - -
1777509750 15° C 61% 1019.6 hPa - - - -
1777508550 15° C 61% 1019.7 hPa - - - -
1777507350 15.56° C 61% 1019.7 hPa - - - -
1777506152 16.11° C 60% 1019.6 hPa - - - -
1777504950 16.11° C 60% 1019.6 hPa - - - -
1777503749 16.11° C 59% 1019.5 hPa - - - -
1777502549 16.67° C 58% 1019.5 hPa - - - -
1777501349 17.22° C 57% 1019.7 hPa - - - -
1777500149 16.67° C 57% 1019.6 hPa - - - -
1777499945 16.67° C 56% 1019.5 hPa - - - -
1777498752 16.67° C 55% 1019.5 hPa - - - -
1777498744 16.67° C 55% 1019.5 hPa - - - -
1777497552 16.67° C 54% 1019.5 hPa - - - -
1777497544 16.67° C 54% 1019.5 hPa - - - -
1777496352 17.22° C 50% 1019.2 hPa - - - -
1777496344 17.22° C 50% 1019.2 hPa - - - -
1777495144 17.22° C 45% 1019.1 hPa - - - -

* Rain since midnight (hover to see other rain measurements)
** Current wind speed in m/s (hover to see current wind gust speed)